SAS45E ENBR-ENGM

Flight info

Callsign SAS45E
Flight time 0h 36m
Altitude 33000
Route GOKAB2C GOKAB DCT ULVAN DCT ADOPI ADOPI3M
Aircraft E195/M-SDE3GILORVW/S

Departure

Time 2026-05-07 14:54
Airport Bergen Airport, Flesland (ENBR)

Arrival

Time 2026-05-07 15:31
Airport Oslo-Gardermoen International Airport (ENGM)
Time Latitude Longitude Altitude Speed Heading
2026-05-07 14:32 60.28892 5.22540 171 ft 0 kts 83°
2026-05-07 14:47 60.28892 5.22539 171 ft 0 kts 83°
2026-05-07 14:47 60.28890 5.22516 171 ft 2 kts 82°
2026-05-07 14:47 60.28889 5.22487 170 ft 2 kts 83°
2026-05-07 14:47 60.28887 5.22456 169 ft 2 kts 83°
2026-05-07 14:48 60.28886 5.22443 169 ft 0 kts 83°
2026-05-07 14:49 60.28887 5.22447 169 ft 0 kts 59°
2026-05-07 14:50 60.28901 5.22432 169 ft 6 kts 305°
2026-05-07 14:50 60.28944 5.22290 166 ft 16 kts 325°
2026-05-07 14:50 60.29087 5.22223 163 ft 26 kts 349°
2026-05-07 14:50 60.29290 5.22153 158 ft 29 kts 353°
2026-05-07 14:51 60.29498 5.22081 152 ft 31 kts 350°
2026-05-07 14:51 60.29723 5.22006 148 ft 33 kts 350°
2026-05-07 14:51 60.29935 5.21936 150 ft 29 kts 351°
2026-05-07 14:51 60.30135 5.21867 156 ft 28 kts 352°
2026-05-07 14:52 60.30322 5.21806 163 ft 26 kts 349°
2026-05-07 14:52 60.30438 5.21709 168 ft 8 kts 281°
2026-05-07 14:52 60.30437 5.21644 167 ft 3 kts 264°
2026-05-07 14:52 60.30437 5.21642 167 ft 0 kts 264°
2026-05-07 14:53 60.30433 5.21608 166 ft 8 kts 254°
2026-05-07 14:53 60.30370 5.21471 161 ft 18 kts 179°
2026-05-07 14:54 60.30209 5.21525 156 ft 42 kts 171°
2026-05-07 14:54 60.29591 5.21731 143 ft 133 kts 170°
2026-05-07 14:54 60.28484 5.22126 413 ft 179 kts 170°
2026-05-07 14:54 60.27261 5.22599 1473 ft 184 kts 169°
2026-05-07 14:55 60.26041 5.23041 2390 ft 187 kts 169°
2026-05-07 14:55 60.24707 5.23489 3112 ft 203 kts 169°
2026-05-07 14:55 60.23255 5.23971 3733 ft 226 kts 169°
2026-05-07 14:55 60.21603 5.24514 4273 ft 255 kts 169°
2026-05-07 14:56 60.19832 5.25091 5232 ft 265 kts 170°
2026-05-07 14:56 60.18043 5.25672 6412 ft 265 kts 170°
2026-05-07 14:56 60.16264 5.26250 7612 ft 263 kts 171°
2026-05-07 14:56 60.14460 5.26835 8670 ft 266 kts 172°
2026-05-07 14:57 60.12639 5.27425 9626 ft 271 kts 171°
2026-05-07 14:57 60.10913 5.28938 10454 ft 284 kts 141°
2026-05-07 14:57 60.09821 5.32218 11255 ft 297 kts 108°
2026-05-07 14:57 60.09737 5.36370 12092 ft 308 kts 78°
2026-05-07 14:58 60.10241 5.40498 12956 ft 313 kts 78°
2026-05-07 14:58 60.10690 5.44827 13798 ft 319 kts 76°
2026-05-07 14:58 60.11649 5.48853 14436 ft 330 kts 54°
2026-05-07 14:58 60.12962 5.52693 14977 ft 346 kts 54°
2026-05-07 14:59 60.14349 5.56766 15668 ft 357 kts 54°
2026-05-07 14:59 60.15752 5.60908 16460 ft 363 kts 53°
2026-05-07 14:59 60.17166 5.65095 17292 ft 368 kts 54°
2026-05-07 14:59 60.18599 5.69344 18087 ft 372 kts 54°
2026-05-07 15:00 60.20043 5.73635 18874 ft 377 kts 54°
2026-05-07 15:00 60.21522 5.78041 19624 ft 382 kts 53°
2026-05-07 15:00 60.23006 5.82466 20350 ft 388 kts 53°
2026-05-07 15:00 60.24513 5.86972 21075 ft 393 kts 53°
2026-05-07 15:01 60.26030 5.91514 21791 ft 398 kts 53°
2026-05-07 15:01 60.27576 5.96155 22472 ft 404 kts 52°
2026-05-07 15:01 60.29140 6.00858 23149 ft 409 kts 52°
2026-05-07 15:01 60.30726 6.05634 23809 ft 415 kts 52°
2026-05-07 15:02 60.32328 6.10471 24458 ft 420 kts 52°
2026-05-07 15:02 60.33958 6.15405 25111 ft 424 kts 52°
2026-05-07 15:02 60.35582 6.20327 25721 ft 429 kts 52°
2026-05-07 15:02 60.37242 6.25370 26301 ft 435 kts 51°
2026-05-07 15:03 60.38908 6.30445 26872 ft 440 kts 51°
2026-05-07 15:03 60.40571 6.35618 27402 ft 447 kts 55°
2026-05-07 15:03 60.41922 6.41356 27969 ft 457 kts 66°
2026-05-07 15:03 60.42817 6.47558 28519 ft 465 kts 75°
2026-05-07 15:04 60.43274 6.54112 29067 ft 471 kts 85°
2026-05-07 15:04 60.43200 6.60759 29595 ft 476 kts 96°
2026-05-07 15:04 60.42804 6.67450 30103 ft 481 kts 96°
2026-05-07 15:04 60.42546 6.74173 30599 ft 485 kts 94°
2026-05-07 15:05 60.42332 6.80966 31100 ft 489 kts 93°
2026-05-07 15:05 60.42125 6.87904 31600 ft 493 kts 93°
2026-05-07 15:05 60.41919 6.94797 32065 ft 496 kts 93°
2026-05-07 15:05 60.41707 7.01768 32597 ft 498 kts 93°
2026-05-07 15:06 60.41495 7.08645 32927 ft 489 kts 93°
2026-05-07 15:06 60.41281 7.15495 32958 ft 499 kts 93°
2026-05-07 15:06 60.41055 7.22581 32952 ft 513 kts 93°
2026-05-07 15:06 60.40819 7.29887 32928 ft 520 kts 93°
2026-05-07 15:07 60.40583 7.37025 32909 ft 508 kts 93°
2026-05-07 15:07 60.40346 7.44100 32912 ft 505 kts 93°
2026-05-07 15:07 60.39863 7.58197 32731 ft 506 kts 92°
2026-05-07 15:08 60.39671 7.65289 31814 ft 513 kts 88°
2026-05-07 15:08 60.39961 7.72292 31289 ft 499 kts 79°
2026-05-07 15:08 60.40360 7.79189 30713 ft 492 kts 83°
2026-05-07 15:08 60.40631 7.86049 30180 ft 484 kts 84°
2026-05-07 15:09 60.40859 7.92722 29658 ft 480 kts 84°
2026-05-07 15:09 60.41077 7.99481 29130 ft 476 kts 84°
2026-05-07 15:09 60.41283 8.06036 28630 ft 473 kts 84°
2026-05-07 15:09 60.41486 8.12593 28092 ft 469 kts 84°
2026-05-07 15:10 60.41684 8.19112 27589 ft 464 kts 84°
2026-05-07 15:10 60.41876 8.25554 27077 ft 459 kts 84°
2026-05-07 15:10 60.42065 8.31990 26563 ft 455 kts 84°
2026-05-07 15:10 60.42249 8.38339 26069 ft 450 kts 85°
2026-05-07 15:11 60.42425 8.44535 25574 ft 445 kts 84°
2026-05-07 15:11 60.42600 8.50771 25085 ft 441 kts 85°
2026-05-07 15:11 60.42770 8.56949 24606 ft 437 kts 85°
2026-05-07 15:11 60.42932 8.62986 24128 ft 433 kts 85°
2026-05-07 15:12 60.43093 8.69013 23647 ft 430 kts 86°
2026-05-07 15:12 60.43251 8.75073 23178 ft 427 kts 86°
2026-05-07 15:12 60.43402 8.80945 22699 ft 423 kts 86°
2026-05-07 15:12 60.43552 8.86885 22241 ft 418 kts 86°
2026-05-07 15:13 60.43696 8.92659 21785 ft 415 kts 86°
2026-05-07 15:13 60.43837 8.98481 21325 ft 412 kts 86°
2026-05-07 15:13 60.43973 9.04168 20880 ft 407 kts 86°
2026-05-07 15:13 60.44106 9.09831 20426 ft 403 kts 86°
2026-05-07 15:14 60.44237 9.15502 19995 ft 399 kts 86°
2026-05-07 15:14 60.44362 9.20998 19575 ft 396 kts 86°
2026-05-07 15:14 60.44485 9.26511 19133 ft 391 kts 86°
2026-05-07 15:14 60.44605 9.32035 18703 ft 389 kts 86°
2026-05-07 15:15 60.44721 9.37459 18274 ft 385 kts 86°
2026-05-07 15:15 60.44835 9.42863 17849 ft 382 kts 86°
2026-05-07 15:15 60.44944 9.48171 17424 ft 379 kts 86°
2026-05-07 15:15 60.45052 9.53481 16995 ft 375 kts 86°
2026-05-07 15:16 60.45154 9.58668 16584 ft 372 kts 86°
2026-05-07 15:16 60.45255 9.63869 16177 ft 369 kts 86°
2026-05-07 15:16 60.45353 9.68976 15776 ft 365 kts 88°
2026-05-07 15:16 60.45448 9.74083 15367 ft 362 kts 88°
2026-05-07 15:17 60.45541 9.79160 14972 ft 358 kts 88°
2026-05-07 15:17 60.45630 9.84153 14594 ft 355 kts 88°
2026-05-07 15:17 60.45717 9.89110 14208 ft 353 kts 88°
2026-05-07 15:17 60.45801 9.94006 13834 ft 349 kts 87°
2026-05-07 15:18 60.45883 9.98900 13456 ft 346 kts 87°
2026-05-07 15:18 60.45962 10.03734 13089 ft 344 kts 87°
2026-05-07 15:18 60.46039 10.08510 12706 ft 338 kts 87°
2026-05-07 15:18 60.46110 10.13058 12350 ft 328 kts 87°
2026-05-07 15:19 60.46180 10.17587 11989 ft 320 kts 87°
2026-05-07 15:19 60.46247 10.22024 11650 ft 311 kts 88°
2026-05-07 15:19 60.46309 10.26278 11312 ft 303 kts 88°
2026-05-07 15:19 60.46371 10.30539 10982 ft 296 kts 88°
2026-05-07 15:20 60.46447 10.35983 10548 ft 287 kts 88°
2026-05-07 15:20 60.46483 10.38620 10345 ft 283 kts 88°
2026-05-07 15:20 60.46536 10.42535 10035 ft 277 kts 88°
2026-05-07 15:20 60.46563 10.46366 9939 ft 262 kts 89°
2026-05-07 15:21 60.46575 10.50001 9905 ft 255 kts 89°
2026-05-07 15:21 60.46585 10.53559 9898 ft 257 kts 89°
2026-05-07 15:21 60.46594 10.57224 9704 ft 260 kts 89°
2026-05-07 15:21 60.46601 10.60843 9434 ft 259 kts 89°
2026-05-07 15:22 60.46608 10.64468 9154 ft 256 kts 89°
2026-05-07 15:22 60.46614 10.68067 8876 ft 254 kts 90°
2026-05-07 15:22 60.46618 10.71607 8591 ft 252 kts 89°
2026-05-07 15:22 60.46622 10.75110 8318 ft 250 kts 90°
2026-05-07 15:23 60.46625 10.78626 8038 ft 249 kts 90°
2026-05-07 15:23 60.46627 10.82120 7770 ft 247 kts 90°
2026-05-07 15:23 60.46628 10.85599 7504 ft 247 kts 90°
2026-05-07 15:23 60.46628 10.89062 7228 ft 246 kts 90°
2026-05-07 15:24 60.46627 10.92474 6962 ft 245 kts 90°
2026-05-07 15:24 60.46625 10.95927 6700 ft 244 kts 90°
2026-05-07 15:24 60.46622 10.99327 6429 ft 242 kts 90°
2026-05-07 15:24 60.46619 11.02729 6161 ft 238 kts 89°
2026-05-07 15:25 60.46613 11.06048 5899 ft 234 kts 91°
2026-05-07 15:25 60.46115 11.09073 5661 ft 228 kts 129°
2026-05-07 15:25 60.45060 11.11353 5426 ft 223 kts 135°
2026-05-07 15:25 60.43964 11.13565 5171 ft 219 kts 135°
2026-05-07 15:26 60.42893 11.15694 4927 ft 216 kts 135°
2026-05-07 15:26 60.41823 11.17807 4689 ft 214 kts 136°
2026-05-07 15:26 60.40619 11.19441 4459 ft 213 kts 169°
2026-05-07 15:26 60.39148 11.19313 4284 ft 213 kts 190°
2026-05-07 15:27 60.37711 11.18536 4020 ft 214 kts 197°
2026-05-07 15:27 60.36287 11.17689 3733 ft 214 kts 197°
2026-05-07 15:27 60.34874 11.16860 3443 ft 213 kts 197°
2026-05-07 15:27 60.33456 11.16032 3189 ft 204 kts 197°
2026-05-07 15:28 60.32163 11.15281 2918 ft 183 kts 197°
2026-05-07 15:28 60.31017 11.14615 2680 ft 165 kts 197°
2026-05-07 15:28 60.29959 11.14001 2416 ft 151 kts 197°
2026-05-07 15:28 60.28978 11.13431 2205 ft 147 kts 197°
2026-05-07 15:29 60.27988 11.12857 2015 ft 148 kts 197°
2026-05-07 15:29 60.26992 11.12280 1818 ft 149 kts 197°
2026-05-07 15:29 60.25990 11.11699 1615 ft 149 kts 197°
2026-05-07 15:29 60.24991 11.11133 1435 ft 148 kts 196°
2026-05-07 15:30 60.24003 11.10581 1252 ft 149 kts 197°
2026-05-07 15:30 60.23019 11.09986 1033 ft 147 kts 197°
2026-05-07 15:30 60.21703 11.09222 752 ft 145 kts 196°
2026-05-07 15:30 60.21070 11.08859 694 ft 139 kts 197°
2026-05-07 15:31 60.20258 11.08387 687 ft 96 kts 196°
2026-05-07 15:31 60.19765 11.08102 687 ft 54 kts 196°
2026-05-07 15:31 60.19442 11.07916 687 ft 43 kts 195°
2026-05-07 15:31 60.19282 11.07958 687 ft 22 kts 121°
2026-05-07 15:32 60.19273 11.08201 687 ft 18 kts 33°
2026-05-07 15:32 60.19397 11.08285 687 ft 19 kts 17°
2026-05-07 15:32 60.19523 11.08363 687 ft 16 kts 33°
2026-05-07 15:32 60.19530 11.08574 687 ft 16 kts 106°
2026-05-07 15:33 60.19495 11.08815 687 ft 19 kts 105°
2026-05-07 15:33 60.19457 11.09080 687 ft 17 kts 106°
2026-05-07 15:33 60.19473 11.09183 687 ft 7 kts 14°
2026-05-07 15:33 60.19498 11.09197 687 ft 0 kts 17°